GW2652 Weather Reports


Display with metric or nautical units.
time (UTC)temp
F
wind
direction
speed
MPH
gust
MPH
rain 1hr
in
rain 24hr
in
rain mn
in
humidity
%
barometer
mb
20260903200753 82 210 3.0 6.0 0.00 0.83 0.83 78 1011.8
20260903200248 80 277 2.0 2.0 0.00 0.83 0.83 81 1011.9
20260903195743 79 244 2.0 2.0 0.00 0.83 0.83 82 1011.8
20260903195240 78 280 1.0 1.0 0.00 0.83 0.83 84 1011.9
20260903194739 79 122 1.0 2.0 0.00 0.83 0.83 83 1011.8
20260903194235 80 278 2.0 2.0 0.00 0.83 0.83 83 1011.7
20260903193730 82 132 1.0 1.0 0.00 0.83 0.83 80 1011.8
20260903193226 79 125 0.0 1.0 0.00 0.83 0.83 84 1011.9
20260903192722 78 219 2.0 2.0 0.00 0.83 0.83 88 1011.9
20260903192217 79 236 0.0 1.0 0.00 0.83 0.83 85 1011.9
20260903191713 80 252 2.0 2.0 0.00 0.83 0.83 81 1012.0
20260903191208 81 187 1.0 2.0 0.00 0.83 0.83 80 1012.0
20260903190657 80 227 1.0 2.0 0.00 0.83 0.83 81 1012.2
20260903190157 80 218 2.0 3.0 0.00 0.83 0.83 81 1012.3
20260903185652 81 243 2.0 2.0 0.00 0.83 0.83 82 1012.1
20260903185147 79 222 1.0 1.0 0.00 0.83 0.83 82 1012.3
20260903184644 78 315 4.0 4.0 0.00 0.83 0.83 87 1012.3
20260903184139 78 244 2.0 2.0 0.00 0.83 0.83 86 1012.3
20260903183638 78 256 4.0 6.0 0.00 0.83 0.83 86 1012.6
20260903183133 77 268 2.0 2.0 0.00 0.83 0.83 88 1012.6
20260903182632 77 239 2.0 2.0 0.00 0.83 0.83 88 1012.4
20260903182128 77 228 1.0 1.0 0.00 0.83 0.83 88 1012.5
20260903181626 76 189 0.0 0.0 0.00 0.83 0.83 90 1012.6
20260903181121 77 185 0.0 1.0 0.00 0.83 0.83 89 1012.5
20260903180616 77 253 2.0 2.0 0.00 0.83 0.83 90 1012.7
20260903180111 77 153 0.0 1.0 0.00 0.83 0.83 85 1012.8
20260903175610 77 156 1.0 1.0 0.00 0.83 0.83 89 1012.7
20260903175109 77 216 0.0 0.0 0.00 0.83 0.83 88 1012.7
20260903174604 77 220 0.0 0.0 0.00 0.83 0.83 86 1012.5
20260903174059 77 221 1.0 1.0 0.00 0.83 0.83 85 1012.7
20260903173554 78 202 3.0 3.0 0.00 0.83 0.83 87 1012.7
20260903173050 79 160 3.0 6.0 0.00 0.83 0.83 81 1012.7
20260903172550 78 74 2.0 3.0 0.00 0.83 0.83 84 1012.8
20260903172046 79 224 2.0 2.0 0.00 0.83 0.83 83 1012.8
20260903171540 79 128 2.0 3.0 0.00 0.83 0.83 82 1012.9
20260903171036 78 235 4.0 6.0 0.00 0.83 0.83 85 1012.6
20260903170534 79 78 2.0 2.0 0.00 0.83 0.83 83 1012.8
20260903170030 77 214 2.0 3.0 0.00 0.83 0.83 88 1012.8
20260903165527 77 295 4.0 4.0 0.00 0.83 0.83 87 1013.0
20260903165023 76 223 1.0 2.0 0.00 0.83 0.83 89 1013.1
20260903164518 76 192 1.0 1.0 0.00 0.83 0.83 89 1013.0
20260903164013 75 175 1.0 1.0 0.00 0.83 0.83 90 1012.9
20260903163508 75 242 3.0 3.0 0.00 0.83 0.83 93 1013.0
20260903163005 75 198 2.0 2.0 0.00 0.83 0.83 90 1013.1
20260903162501 75 176 1.0 3.0 0.00 0.83 0.83 90 1013.1
20260903161956 75 102 1.0 3.0 0.00 0.83 0.83 92 1013.6
20260903161446 73 246 2.0 2.0 0.00 0.83 0.83 93 1013.2
20260903160942 73 209 0.0 1.0 0.00 0.83 0.83 94 1013.3
20260903160440 73 124 0.0 0.0 0.00 0.83 0.83 94 1013.7
20260903155939 73 243 1.0 2.0 0.00 0.83 0.83 93 1013.7
20260903155440 73 181 1.0 1.0 0.00 0.83 0.83 94 1013.3
20260903154936 73 188 0.0 1.0 0.00 0.83 0.83 93 1013.8
20260903154431 74 245 3.0 4.0 0.00 0.83 0.83 92 1013.6
20260903153927 73 211 2.0 2.0 0.00 0.83 0.83 93 1013.8
20260903153422 74 61 2.0 3.0 0.00 0.83 0.83 92 1013.9
20260903152918 74 281 4.0 4.0 0.00 0.83 0.83 94 1013.9
20260903152414 73 215 2.0 3.0 0.00 0.83 0.83 94 1013.6
20260903151909 71 202 2.0 2.0 0.00 0.83 0.83 96 1013.8
20260903151404 71 41 2.0 3.0 0.00 0.83 0.83 96 1014.0
20260903150858 71 316 4.0 6.0 0.00 0.83 0.83 96 1013.8
20260903150353 71 339 2.0 2.0 0.00 0.83 0.83 96 1013.9
20260903145848 71 181 1.0 1.0 0.00 0.83 0.83 96 1013.8
20260903145343 72 184 0.0 1.0 0.00 0.83 0.83 96 1013.8
20260903144842 72 147 1.0 1.0 0.00 0.83 0.83 96 1013.7
20260903144338 71 166 1.0 1.0 0.00 0.83 0.83 96 1013.6
20260903143833 71 200 0.0 0.0 0.00 0.83 0.83 96 1013.7
20260903143330 71 295 2.0 3.0 0.00 0.83 0.83 96 1014.0
20260903142825 71 336 3.0 3.0 0.00 0.83 0.83 96 1013.6
20260903142321 71 204 1.0 2.0 0.00 0.83 0.83 97 1013.8
20260903141816 71 193 0.0 0.0 0.00 0.83 0.83 97 1013.7
20260903141313 71 220 2.0 3.0 0.00 0.83 0.83 96 1013.5
20260903140812 71 79 0.0 0.0 0.00 0.83 0.83 98 1013.7
20260903140307 71 77 1.0 1.0 0.00 0.83 0.83 97 1013.2
20260903135803 71 79 0.0 0.0 0.00 0.83 0.83 97 1013.5
20260903135258 70 79 0.0 0.0 0.00 0.83 0.83 97 1013.5
20260903134757 70 70 1.0 2.0 0.00 0.83 0.83 99 1013.5
20260903134253 69 71 1.0 2.0 0.00 0.83 0.83 99 1013.5
20260903133750 69 71 2.0 2.0 0.00 0.83 0.83 99 1013.2
20260903133246 69 71 0.0 0.0 0.00 0.83 0.83 99 1013.1
20260903132740 68 71 1.0 3.0 0.00 0.83 0.83 99 1013.3
20260903132235 68 225 0.0 0.0 0.00 0.83 0.83 99 1013.3
20260903131730 68 142 0.0 0.0 0.00 0.83 0.83 99 1013.6
20260903131224 68 171 0.0 0.0 0.00 0.83 0.83 99 1013.8
20260903130719 68 169 0.0 0.0 0.00 0.83 0.83 99 1013.8
20260903130214 68 169 0.0 0.0 0.00 0.83 0.83 99 1013.6
20260903125712 67 169 0.0 0.0 0.00 0.83 0.83 99 1013.9
20260903125208 67 169 0.0 0.0 0.00 0.83 0.83 99 1013.6
20260903124707 67 169 0.0 0.0 0.00 0.83 0.83 99 1014.0
20260903124203 67 169 0.0 0.0 0.00 0.83 0.83 99 1013.7
20260903123701 67 169 0.0 0.0 0.00 0.83 0.83 99 1013.7
20260903123159 67 169 0.0 0.0 0.00 0.83 0.83 99 1013.7
20260903122654 67 169 0.0 0.0 0.00 0.83 0.83 99 1013.5
20260903122149 66 169 0.0 0.0 0.00 0.83 0.83 99 1013.6
20260903121647 66 169 0.0 0.0 0.00 0.83 0.83 99 1013.5
20260903121144 66 169 0.0 0.0 0.00 0.83 0.83 99 1013.3
20260903120642 66 169 0.0 0.0 0.00 0.83 0.83 99 1013.5
20260903120137 66 169 0.0 0.0 0.00 0.83 0.83 99 1013.5
20260903115635 65 169 0.0 0.0 0.00 0.83 0.83 99 1013.5
20260903115131 65 169 0.0 0.0 0.00 0.83 0.83 99 1013.6
20260903114626 65 169 0.0 0.0 0.00 0.83 0.83 99 1013.7
20260903114121 64 169 0.0 0.0 0.00 0.83 0.83 99 1013.5
20260903113616 64 169 0.0 0.0 0.00 0.83 0.83 99 1013.5
20260903113113 64 169 0.0 0.0 0.00 0.83 0.83 99 1013.5
20260903112609 64 169 0.0 0.0 0.00 0.83 0.83 99 1013.5
20260903112108 64 169 0.0 0.0 0.00 0.83 0.83 99 1013.7
20260903111607 64 169 0.0 0.0 0.00 0.83 0.83 99 1013.3
20260903111058 64 169 0.0 0.0 0.00 0.83 0.83 99 1013.6
20260903110553 64 169 0.0 0.0 0.00 0.83 0.83 99 1013.6
20260903110048 64 170 0.0 0.0 0.00 0.83 0.83 99 1013.5
20260903105543 64 170 0.0 0.0 0.00 0.83 0.83 99 1013.2
20260903105038 64 170 0.0 0.0 0.00 0.83 0.83 99 1013.1
20260903104538 64 170 0.0 0.0 0.00 0.83 0.83 99 1013.5
20260903104033 64 170 0.0 0.0 0.00 0.83 0.83 99 1013.2
20260903103529 64 170 0.0 0.0 0.00 0.83 0.83 99 1013.5
20260903103026 64 170 0.0 0.0 0.00 0.83 0.83 99 1013.2
20260903102520 64 170 0.0 0.0 0.00 0.83 0.83 99 1013.5
20260903102019 64 170 0.0 0.0 0.00 0.83 0.83 99 1013.5
20260903101514 64 170 0.0 0.0 0.00 0.83 0.83 99 1013.5
20260903101010 64 170 0.0 0.0 0.00 0.83 0.83 99 1013.8
20260903100504 64 170 0.0 0.0 0.00 0.83 0.83 99 1013.6
20260903100002 64 170 0.0 0.0 0.00 0.83 0.83 99 1013.5
20260903095456 64 170 0.0 0.0 0.00 0.83 0.83 99 1013.6
20260903094951 64 170 0.0 0.0 0.00 0.83 0.83 99 1013.6
20260903094450 64 170 0.0 0.0 0.00 0.83 0.83 99 1013.5
20260903093947 64 170 0.0 0.0 0.00 0.83 0.83 99 1013.8
20260903093442 64 170 0.0 0.0 0.00 0.83 0.83 99 1013.5
20260903092938 64 170 0.0 0.0 0.00 0.83 0.83 99 1013.6
20260903092437 64 212 0.0 0.0 0.00 0.83 0.83 99 1013.7
20260903091936 64 212 0.0 0.0 0.00 0.83 0.83 99 1013.5
20260903091434 64 238 0.0 0.0 0.35 0.83 0.83 99 1013.6
20260903090930 64 203 0.0 0.0 0.54 0.83 0.83 99 1013.5
20260903090426 64 205 0.0 0.0 0.19 0.77 0.77 99 1013.5
20260903085924 64 205 0.0 0.0 0.00 0.74 0.74 99 1013.3
20260903085423 64 205 0.0 0.0 0.00 0.74 0.74 99 1013.3
20260903084922 64 204 0.0 0.0 0.00 0.74 0.74 99 1013.5
20260903084421 64 204 0.0 0.0 0.00 0.74 0.74 99 1013.5
20260903083916 64 204 0.0 0.0 0.00 0.74 0.74 99 1013.3
20260903083413 64 204 0.0 0.0 0.00 0.74 0.74 99 1013.7
20260903082911 64 204 0.0 0.0 0.00 0.74 0.74 99 1013.5
20260903082406 64 204 0.0 0.0 0.00 0.74 0.74 99 1013.2
20260903081902 64 204 0.0 0.0 0.00 0.74 0.74 99 1013.6
20260903081356 64 204 0.0 0.0 0.00 0.74 0.74 99 1013.6
20260903080853 64 204 0.0 0.0 0.00 0.74 0.74 99 1013.7
20260903080349 64 204 0.0 0.0 0.00 0.74 0.74 99 1013.5
20260903075844 64 204 0.0 0.0 0.07 0.74 0.74 99 1013.5
20260903075339 64 204 0.0 0.0 0.12 0.74 0.74 99 1013.6
20260903074838 64 204 0.0 0.0 0.05 0.73 0.73 99 1013.6
20260903074333 64 207 0.0 0.0 0.00 0.72 0.72 99 1013.6
20260903073829 65 207 0.0 0.0 0.00 0.72 0.72 99 1013.6
20260903073324 65 207 1.0 1.0 0.00 0.72 0.72 99 1013.7
20260903072820 65 205 0.0 0.0 0.00 0.72 0.72 99 1013.6
20260903072315 65 205 0.0 0.0 0.00 0.72 0.72 99 1013.5
20260903071812 65 205 0.0 1.0 0.00 0.72 0.72 99 1013.6
20260903071308 65 205 0.0 0.0 0.00 0.72 0.72 99 1013.5
20260903070802 65 206 0.0 0.0 0.00 0.72 0.72 99 1013.7
20260903070258 65 205 0.0 0.0 0.00 0.72 0.72 99 1013.5
20260903065753 65 206 0.0 0.0 0.00 0.72 0.72 99 1013.5
20260903065252 65 206 0.0 0.0 0.00 0.72 0.72 99 1013.3
20260903064751 65 206 0.0 1.0 0.00 0.72 0.72 99 1013.3
20260903064247 65 257 2.0 2.0 0.12 0.72 0.72 99 1013.5
20260903063743 65 151 0.0 0.0 0.12 0.72 0.72 99 1013.8
20260903063237 65 149 0.0 0.0 0.00 0.70 0.70 99 1014.1
20260903062734 65 249 2.0 2.0 0.07 0.70 0.70 99 1014.1
20260903062232 65 320 3.0 3.0 0.07 0.70 0.70 99 1013.8
20260903061729 65 205 2.0 3.0 0.00 0.69 0.69 99 1013.3
20260903061228 65 211 1.0 1.0 0.00 0.69 0.69 99 1013.5
20260903060724 65 326 4.0 6.0 0.17 0.69 0.69 99 1013.3
20260903060224 65 285 2.0 6.0 1.06 0.69 0.69 99 1013.0
20260903055721 65 286 2.0 2.0 1.13 0.67 0.67 99 1013.7
20260903055220 66 273 4.0 4.0 0.38 0.53 0.53 99 1013.7
20260903054715 65 291 1.0 2.0 0.42 0.48 0.48 99 1013.6
20260903054210 66 326 2.0 4.0 0.64 0.47 0.47 99 1013.5
20260903053707 66 253 4.0 4.0 0.78 0.42 0.42 99 1014.0
20260903053201 65 187 1.0 2.0 0.54 0.36 0.36 99 1014.1
20260903052657 65 223 2.0 2.0 0.17 0.28 0.28 99 1014.1
20260903052153 65 129 0.0 0.0 0.19 0.27 0.27 99 1014.2
20260903051647 65 167 1.0 1.0 0.07 0.25 0.25 99 1013.8
20260903051143 65 168 0.0 0.0 0.00 0.24 0.24 99 1013.8
20260903050638 65 125 0.0 1.0 0.07 0.24 0.24 99 1013.9
20260903050132 65 124 1.0 2.0 0.12 0.24 0.24 99 1013.6
20260903045632 65 123 0.0 0.0 0.17 0.23 0.23 99 1013.8
20260903045128 64 221 1.0 2.0 0.42 0.22 0.22 99 1013.8
20260903044624 64 153 0.0 1.0 0.47 0.21 0.21 99 1014.0
20260903044119 64 164 0.0 0.0 0.42 0.15 0.15 99 1014.7
20260903043616 64 87 0.0 0.0 0.38 0.12 0.12 99 1014.8
20260903043115 64 84 0.0 0.0 0.24 0.09 0.09 99 1015.0
20260903042615 64 162 1.0 2.0 0.19 0.07 0.07 99 1015.0
20260903042110 64 160 0.0 0.0 0.19 0.05 0.05 99 1015.5
20260903041607 64 168 0.0 1.0 0.12 0.04 0.04 99 1015.7
20260903041102 64 184 0.0 0.0 0.12 0.02 0.02 99 1016.2
20260903040601 64 172 0.0 1.0 0.12 0.02 0.02 99 1015.3
20260903040057 63 174 0.0 0.0 0.05 1.72 1.72 99 1015.2
20260903035553 63 175 0.0 0.0 0.12 1.72 1.72 99 1014.8
20260903035048 63 195 0.0 0.0 0.07 1.71 1.71 99 1014.6
20260903034543 63 312 0.0 0.0 0.07 1.70 1.70 99 1014.1
20260903034039 63 147 0.0 0.0 0.07 1.70 1.70 99 1014.1
20260903033533 63 228 1.0 3.0 0.05 1.69 1.69 99 1014.2
20260903033029 63 136 1.0 1.0 0.12 1.69 1.69 99 1014.3
20260903032524 63 134 0.0 1.0 0.12 1.68 1.68 99 1014.7
20260903032019 64 146 1.0 1.0 0.17 1.67 1.67 99 1014.8
20260903031518 64 215 1.0 1.0 0.24 1.66 1.66 99 1015.0
20260903031014 64 150 1.0 2.0 0.24 1.64 1.64 99 1015.3
20260903030509 64 169 0.0 1.0 0.31 1.62 1.62 99 1015.3
20260903030006 64 171 0.0 0.0 0.31 1.60 1.60 99 1015.8
20260903025501 64 172 0.0 1.0 0.26 1.58 1.58 99 1015.9
20260903024956 64 193 1.0 1.0 0.19 1.55 1.55 99 1015.8
20260903024455 64 231 2.0 2.0 0.24 1.54 1.54 99 1016.0
20260903023950 64 292 4.0 4.0 0.17 1.52 1.52 99 1016.0
20260903023446 64 147 1.0 1.0 0.12 1.50 1.50 99 1015.6
20260903022941 65 173 0.0 0.0 0.12 1.49 1.49 99 1015.4
20260903022440 65 164 0.0 1.0 0.42 1.48 1.48 99 1015.8
20260903021938 65 172 0.0 0.0 0.61 1.47 1.47 99 1016.5
20260903021434 65 210 2.0 2.0 1.61 1.43 1.43 99 1017.2
20260903020929 65 159 0.0 1.0 1.44 1.37 1.37 99 1016.7
20260903020424 65 162 2.0 3.0 0.05 1.13 1.13 99 1018.5
20260903015919 65 167 0.0 0.0 0.12 1.13 1.13 99 1015.6
20260903015415 65 167 0.0 0.0 0.07 1.12 1.12 99 1015.4
20260903014909 65 166 0.0 0.0 0.00 1.11 1.11 99 1015.5
20260903014409 65 165 1.0 2.0 0.00 1.11 1.11 99 1015.3
20260903013904 65 165 2.0 2.0 0.00 1.11 1.11 99 1015.5
20260903013403 65 166 0.0 0.0 0.00 1.11 1.11 99 1015.7
20260903012902 65 166 0.0 0.0 0.00 1.11 1.11 99 1015.8
20260903012357 65 166 1.0 1.0 0.00 1.11 1.11 99 1015.6
20260903011856 65 166 2.0 2.0 0.00 1.11 1.11 99 1016.0
20260903011350 66 166 0.0 0.0 0.00 1.11 1.11 99 1015.9
20260903010846 66 166 2.0 3.0 0.00 1.11 1.11 99 1015.9
20260903010341 65 157 0.0 1.0 0.00 1.11 1.11 99 1014.8
20260903005839 66 157 1.0 1.0 0.00 1.11 1.11 99 1014.7
20260903005335 66 157 0.0 0.0 0.00 1.11 1.11 99 1015.5
20260903004831 66 157 0.0 0.0 0.00 1.11 1.11 99 1015.1
20260903004326 66 157 1.0 1.0 0.00 1.11 1.11 99 1015.5
20260903003821 66 8 0.0 0.0 0.00 1.11 1.11 99 1015.6
20260903003315 66 156 0.0 1.0 0.00 1.11 1.11 99 1015.2
20260903002810 66 146 0.0 0.0 0.00 1.11 1.11 99 1015.2
20260903002309 66 146 0.0 0.0 0.00 1.11 1.11 99 1015.3
20260903001805 66 111 0.0 0.0 0.00 1.11 1.11 99 1015.2
20260903001300 66 87 0.0 0.0 0.00 1.11 1.11 99 1015.0
20260903000754 66 60 0.0 1.0 0.00 1.11 1.11 99 1015.1
20260903000249 66 169 0.0 1.0 0.00 1.11 1.11 99 1014.8
20260902235747 66 152 1.0 2.0 0.00 1.11 1.11 99 1015.0
20260902235243 66 186 0.0 0.0 0.00 1.11 1.11 99 1015.2
20260902234742 66 120 1.0 1.0 0.00 1.11 1.11 99 1015.2
20260902234242 66 149 0.0 0.0 0.00 1.11 1.11 99 1015.3
20260902233742 66 156 1.0 2.0 0.00 1.11 1.11 99 1015.5
20260902233236 66 189 0.0 0.0 0.00 1.11 1.11 99 1015.3
20260902232734 66 214 1.0 2.0 0.00 1.11 1.11 99 1015.4
20260902232228 66 197 0.0 0.0 0.00 1.11 1.11 99 1015.2
20260902231723 66 152 0.0 1.0 0.00 1.11 1.11 99 1015.1
20260902231218 66 127 0.0 0.0 0.00 1.11 1.11 99 1014.7
20260902230713 66 124 1.0 1.0 0.00 1.11 1.11 99 1015.0
20260902230212 66 153 0.0 0.0 0.00 1.11 1.11 99 1015.2
20260902225706 66 149 0.0 0.0 0.00 1.11 1.11 99 1015.1
20260902225201 66 145 2.0 2.0 0.00 1.11 1.11 99 1015.0
20260902224659 66 137 2.0 2.0 0.00 1.11 1.11 99 1015.1
20260902224155 66 128 1.0 1.0 0.00 1.11 1.11 99 1015.1
20260902223651 67 154 0.0 1.0 0.00 1.11 1.11 99 1015.5
20260902223150 67 157 1.0 2.0 0.00 1.11 1.11 99 1015.5
20260902222643 67 128 2.0 2.0 0.00 1.11 1.11 99 1015.9
20260902222142 67 143 1.0 1.0 0.00 1.11 1.11 99 1015.8
20260902221637 67 149 1.0 1.0 0.00 1.11 1.11 99 1015.8
20260902221132 67 143 0.0 0.0 0.00 1.11 1.11 99 1015.7
20260902220627 68 143 3.0 3.0 0.00 1.11 1.11 98 1015.8
20260902220122 68 150 0.0 1.0 0.00 1.11 1.11 99 1015.7
20260902215618 68 160 1.0 1.0 0.00 1.11 1.11 98 1015.9
20260902215113 68 155 0.0 1.0 0.00 1.11 1.11 98 1016.0
20260902214608 68 149 1.0 1.0 0.00 1.11 1.11 98 1015.9
20260902214107 68 195 0.0 0.0 0.00 1.11 1.11 98 1016.0
20260902213603 68 163 0.0 0.0 0.00 1.11 1.11 98 1015.6
20260902213102 68 179 0.0 0.0 0.00 1.11 1.11 98 1015.7
20260902212557 68 173 1.0 1.0 0.00 1.11 1.11 97 1016.0
20260902212053 68 150 1.0 1.0 0.00 1.11 1.11 97 1015.7
20260902211550 68 184 1.0 2.0 0.00 1.11 1.11 97 1015.8
20260902211049 69 156 0.0 1.0 0.00 1.11 1.11 97 1015.8
20260902210544 68 162 0.0 0.0 0.00 1.11 1.11 97 1015.5
20260902210043 68 170 0.0 0.0 0.00 1.11 1.11 97 1015.7
20260902205543 68 147 1.0 2.0 0.00 1.11 1.11 97 1015.8
20260902205038 69 148 1.0 1.0 0.00 1.11 1.11 96 1015.7
20260902204533 69 133 1.0 2.0 0.00 1.11 1.11 96 1015.6
20260902204028 69 133 0.0 1.0 0.00 1.11 1.11 96 1015.9
20260902203523 69 157 0.0 1.0 0.00 1.11 1.11 96 1015.5
20260902203022 69 133 1.0 2.0 0.00 1.11 1.11 96 1015.6
20260902202519 69 133 0.0 1.0 0.00 1.11 1.11 96 1016.3
20260902202015 69 133 1.0 2.0 0.00 1.11 1.11 97 1015.9
20260902201510 69 135 0.0 1.0 0.00 1.11 1.11 96 1016.0
20260902201009 69 130 1.0 2.0 0.00 1.11 1.11 96 1016.2